Wind_Speed
7 7 7 7 8 8 9 10 10 10 10 10 11 11 11 11 12 12 12 12 13 13 14 15 16 16 17 18 19 19 20 20 21 22 22 23 23 23
8 8 8 9 9 9 10 10 10 11 11 12 12 12 12 13 13 13 13 13 14 14 15 15 17 18 18 19 19 20 21 22 23 24 24 24 24 24
9 9 9 9 9 9 9 10 11 12 12 13 13 13 14 14 14 14 14 15 15 16 17 17 18 19 20 20 21 22 23 23 24 24 24 24 25 25
10 10 10 10 10 11 11 11 11 11 12 13 14 14 15 15 15 16 16 16 17 17 18 19 19 20 20 20 21 22 22 23 23 24 24 25 25 26
10 10 10 11 12 12 12 12 12 12 13 13 14 14 15 15 16 16 17 18 18 19 19 20 20 20 20 21 21 22 22 23 23 24 25 25 26 27
11 11 12 12 13 13 13 13 13 13 14 14 15 15 16 16 17 17 18 19 19 20 21 21 21 21 21 22 22 23 24 24 25 26 26 27 28 29
12 13 13 14 13 14 14 14 14 15 15 16 16 16 16 17 17 18 19 19 20 21 21 22 22 22 23 23 24 24 25 25 26 27 28 29 30 31
14 14 14 14 15 15 15 16 16 16 16 17 17 18 18 19 19 20 20 21 21 22 22 23 23 24 25 26 26 26 27 27 28 29 29 30 31 32
14 15 15 15 16 16 16 16 16 16 17 17 18 19 19 20 21 21 22 22 23 23 24 24 25 26 27 27 28 28 28 29 30 30 31 31 31 32
16 16 16 17 16 16 16 17 18 18 19 19 19 20 21 21 22 22 23 23 23 24 25 25 26 27 28 28 29 29 30 30 31 32 31 32 32 33
18 18 18 18 17 17 18 19 20 20 20 21 21 22 22 22 23 23 24 24 25 26 26 27 28 29 29 29 29 30 31 31 32 33 33 33 33 34
20 20 19 19 19 20 20 21 21 21 21 22 22 23 23 24 24 25 26 26 27 27 28 29 29 30 30 31 31 31 32 33 33 33 34 34 35 35
21 21 21 21 20 21 21 22 22 22 22 23 23 24 24 25 25 26 26 27 27 28 29 30 30 31 31 32 32 33 33 34 34 35 35 35 36 36
23 23 22 22 22 22 23 24 24 23 23 24 24 24 25 25 26 26 26 27 28 29 29 30 31 31 32 32 33 34 34 35 35 35 35 36 36 37
24 24 24 23 23 24 24 25 25 24 24 24 25 25 26 26 26 27 27 28 28 29 29 30 31 32 32 33 34 34 35 35 36 36 37 37 37 37
25 25 25 24 24 25 25 26 26 25 26 26 26 27 27 28 28 28 29 29 29 29 30 31 32 33 33 34 34 35 35 36 36 37 37 37 37 37
26 25 25 25 25 26 26 26 26 27 27 27 28 28 28 28 29 30 30 30 31 31 31 32 33 34 35 35 35 35 36 35 36 36 37 37 38 38
27 26 26 27 27 28 27 27 27 28 28 28 28 29 29 30 31 31 31 32 32 33 33 33 34 35 36 36 36 36 36 36 36 36 37 37 37 38
27 27 28 28 28 28 28 28 29 29 29 30 30 30 31 32 32 32 32 32 33 33 34 34 35 36 36 36 36 36 36 36 36 37 37 37 37 37
28 28 28 28 28 28 29 30 30 31 31 31 31 31 32 32 32 33 33 33 34 34 34 34 36 37 37 38 38 37 37 38 37 37 37 37 37 36
29 29 29 29 29 30 30 30 31 31 32 32 31 31 32 32 33 33 34 34 34 35 35 35 36 38 38 38 38 37 38 37 37 37 37 36 36 35
30 30 30 31 31 31 31 32 32 32 32 32 33 33 32 32 32 33 33 34 34 35 36 36 37 38 38 38 38 37 37 37 37 36 36 35 35 35
31 31 31 32 32 32 33 33 32 32 33 33 33 33 33 33 33 33 33 34 35 36 36 36 37 37 37 37 36 37 37 37 37 36 36 35 35 35
Wind_Direction
294 291 289 278 276 280 281 279 277 280 283 285 288 288 284 286 288 290 292 288 286 286 285 283 282 281 280 279 280 282 283 284 284 283 282 281 280 280
295 291 286 283 282 284 284 279 277 279 283 287 287 285 285 286 287 291 291 291 290 288 287 288 286 284 282 283 283 284 285 284 284 284 285 284 284 283
296 293 291 286 285 285 285 283 278 278 279 282 285 285 287 288 288 290 290 290 289 288 288 288 289 288 285 284 285 286 286 286 286 286 285 285 285 286
298 292 292 291 289 287 286 287 285 283 283 283 284 286 287 288 290 289 290 291 290 289 289 289 291 291 290 288 290 291 290 289 289 288 288 287 287 287
300 294 290 292 294 292 290 289 288 286 285 284 284 286 286 287 288 288 288 289 290 290 289 290 291 292 292 291 291 292 292 292 291 289 288 286 286 287
297 296 292 291 293 294 293 291 289 289 288 287 288 287 287 289 289 289 289 289 290 290 290 291 291 292 292 292 291 292 293 293 292 291 290 289 288 288
294 295 295 292 290 292 293 293 293 292 291 290 290 290 290 292 292 292 293 293 292 291 290 290 291 292 292 292 292 293 293 293 293 292 290 289 289 289
295 294 293 293 290 292 292 291 291 293 293 292 292 292 292 292 292 292 293 293 293 292 291 290 291 292 292 292 292 293 293 293 293 292 291 291 291 291
297 296 295 292 291 290 294 295 294 293 292 291 290 290 291 291 291 291 292 291 291 291 291 291 292 292 293 293 293 292 292 292 293 294 293 293 293 292
300 297 296 295 292 293 294 294 293 292 291 290 290 290 292 293 291 292 292 291 292 293 294 294 294 294 295 295 294 293 292 293 293 294 294 295 294 294
300 298 295 293 293 295 294 294 293 290 290 290 290 290 291 292 293 294 294 294 294 293 294 294 295 296 295 295 295 294 294 294 294 294 294 295 294 294
297 297 296 294 293 294 295 294 294 292 291 291 291 291 291 293 294 294 294 294 294 293 293 294 295 295 294 294 294 294 294 294 295 294 294 294 293 293
297 295 294 292 292 294 296 296 295 293 292 292 291 291 292 293 293 294 294 294 294 294 294 293 294 295 295 294 294 295 294 294 294 294 294 294 294 294
295 294 292 291 291 293 295 295 295 294 293 293 292 292 293 294 294 295 295 295 295 295 295 294 295 295 296 296 295 295 295 295 294 294 295 295 295 295
293 293 292 292 293 293 294 294 294 293 293 293 292 293 294 294 295 295 295 295 296 296 295 295 296 296 297 298 297 296 296 296 295 295 295 295 295 296
292 292 293 295 296 294 294 294 293 293 292 292 293 293 293 293 294 295 295 295 296 296 296 296 296 297 298 299 299 298 298 297 296 296 296 295 294 295
292 293 292 293 294 294 295 294 294 293 293 293 293 293 293 293 293 293 294 295 296 296 297 297 298 298 300 300 300 300 298 298 298 298 297 296 296 296
291 291 291 292 293 293 292 293 293 293 293 293 293 293 293 292 292 292 293 294 295 296 297 297 298 299 300 301 301 301 300 299 298 298 298 298 297 297
289 290 292 292 291 292 291 292 293 293 293 293 293 294 294 294 293 293 293 294 295 296 297 297 298 299 299 300 300 300 301 300 299 299 299 298 298 298
289 289 290 290 289 290 291 291 292 292 292 293 294 294 295 294 294 295 296 296 296 297 298 299 300 300 300 300 300 300 301 302 301 299 299 299 298 298
288 288 287 287 288 289 291 291 291 291 292 293 294 295 295 295 295 295 296 297 297 298 298 299 300 300 300 300 300 300 301 301 301 301 301 301 300 299
286 287 287 287 288 289 290 291 292 292 292 292 293 294 295 295 296 297 297 297 298 298 298 299 299 299 299 300 300 300 300 300 300 301 302 302 301 301
286 286 287 287 288 289 290 291 292 293 293 293 293 293 294 294 295 297 297 298 299 299 299 300 300 300 300 300 301 301 301 300 300 301 302 302 302 302
Height
5882 5882 5881 5880 5880 5879 5879 5878 5878 5878 5877 5876 5876 5875 5874 5873 5872 5871 5870 5869 5869 5868 5867 5866 5866 5865 5864 5863 5862 5861 5860 5859 5858 5857 5856 5855 5853 5852
5880 5880 5879 5878 5878 5877 5877 5876 5875 5875 5875 5874 5873 5872 5871 5870 5869 5868 5867 5866 5865 5865 5864 5863 5862 5861 5860 5859 5858 5856 5855 5854 5853 5851 5850 5849 5847 5846
5878 5878 5877 5876 5876 5875 5874 5873 5872 5872 5871 5871 5870 5869 5868 5867 5866 5865 5864 5863 5862 5861 5860 5859 5857 5856 5855 5854 5853 5852 5850 5848 5847 5845 5844 5843 5841 5840
5876 5875 5875 5874 5873 5872 5871 5870 5869 5869 5868 5867 5866 5865 5865 5863 5863 5861 5860 5859 5858 5857 5855 5854 5853 5851 5850 5849 5847 5846 5844 5842 5841 5839 5838 5836 5835 5833
5874 5873 5872 5871 5870 5869 5868 5867 5866 5865 5864 5863 5863 5862 5861 5860 5859 5858 5856 5855 5853 5852 5851 5849 5848 5846 5845 5843 5841 5840 5838 5836 5835 5833 5831 5829 5828 5826
5871 5870 5869 5868 5867 5866 5865 5864 5863 5862 5860 5860 5859 5858 5857 5856 5854 5853 5851 5850 5848 5847 5845 5844 5842 5841 5839 5837 5836 5834 5832 5830 5828 5826 5824 5822 5820 5818
5868 5867 5866 5865 5864 5863 5862 5860 5859 5858 5856 5855 5854 5853 5852 5851 5850 5848 5846 5844 5843 5841 5840 5838 5837 5835 5833 5831 5829 5827 5826 5824 5821 5819 5817 5815 5813 5810
5865 5864 5862 5861 5860 5859 5858 5856 5855 5854 5852 5851 5850 5849 5848 5846 5845 5843 5841 5839 5838 5836 5834 5832 5830 5828 5826 5824 5822 5820 5818 5816 5814 5811 5809 5807 5804 5801
5861 5860 5858 5857 5855 5854 5853 5852 5851 5849 5848 5847 5846 5844 5843 5841 5839 5837 5836 5834 5832 5830 5828 5826 5824 5821 5819 5817 5815 5813 5810 5808 5806 5803 5800 5798 5795 5792
5857 5856 5854 5853 5851 5850 5849 5847 5846 5845 5844 5842 5840 5839 5837 5835 5834 5832 5830 5828 5826 5824 5821 5819 5817 5814 5812 5810 5807 5805 5802 5800 5797 5794 5792 5789 5786 5783
5853 5851 5850 5848 5847 5845 5844 5842 5841 5839 5838 5836 5835 5833 5831 5829 5827 5826 5823 5821 5819 5817 5815 5812 5810 5807 5804 5802 5799 5796 5794 5791 5788 5786 5783 5780 5776 5773
5848 5846 5845 5843 5842 5840 5839 5837 5835 5833 5832 5830 5828 5827 5825 5823 5821 5819 5817 5814 5812 5810 5807 5804 5802 5799 5796 5793 5790 5788 5785 5782 5779 5776 5773 5770 5766 5763
5843 5841 5839 5838 5836 5835 5833 5832 5829 5827 5825 5824 5822 5820 5818 5816 5814 5811 5809 5807 5804 5802 5799 5796 5793 5790 5788 5785 5782 5778 5775 5772 5769 5766 5763 5760 5756 5753
5837 5835 5834 5832 5831 5829 5827 5825 5823 5821 5819 5817 5815 5813 5811 5808 5806 5804 5801 5799 5796 5794 5791 5788 5785 5782 5779 5776 5773 5769 5766 5762 5759 5756 5752 5749 5746 5742
5831 5829 5828 5826 5824 5823 5820 5818 5816 5814 5812 5810 5808 5806 5803 5801 5798 5796 5793 5791 5788 5785 5782 5779 5776 5773 5770 5767 5763 5760 5756 5753 5749 5745 5742 5738 5735 5731
5825 5823 5821 5819 5817 5815 5813 5811 5809 5807 5804 5802 5800 5798 5795 5793 5790 5788 5785 5782 5780 5777 5774 5771 5768 5764 5761 5757 5754 5750 5746 5742 5739 5735 5731 5728 5724 5720
5818 5816 5814 5812 5810 5808 5806 5803 5801 5799 5797 5795 5792 5790 5787 5785 5782 5780 5776 5773 5771 5768 5765 5762 5759 5755 5751 5748 5744 5740 5736 5732 5728 5724 5720 5717 5713 5709
5810 5808 5806 5804 5802 5800 5798 5796 5794 5791 5789 5787 5784 5781 5779 5776 5774 5771 5768 5765 5762 5759 5756 5753 5749 5746 5742 5738 5734 5730 5726 5722 5718 5714 5710 5706 5702 5698
5802 5800 5798 5796 5794 5792 5790 5788 5786 5783 5781 5778 5776 5773 5770 5767 5765 5762 5759 5756 5753 5750 5746 5743 5739 5736 5732 5728 5724 5720 5716 5712 5708 5704 5699 5695 5691 5688
5794 5792 5790 5788 5786 5784 5782 5779 5777 5775 5772 5769 5767 5764 5761 5758 5755 5753 5750 5747 5743 5740 5737 5733 5730 5726 5722 5718 5714 5710 5706 5701 5697 5693 5689 5685 5681 5677
5785 5783 5781 5779 5778 5775 5773 5771 5768 5766 5763 5760 5758 5755 5752 5749 5746 5743 5740 5737 5734 5730 5727 5724 5720 5715 5711 5707 5703 5700 5695 5691 5687 5683 5679 5675 5671 5667
5776 5774 5772 5771 5768 5766 5764 5761 5759 5756 5753 5751 5748 5745 5742 5740 5737 5734 5730 5727 5724 5720 5717 5713 5709 5705 5701 5697 5693 5689 5685 5681 5677 5673 5669 5665 5661 5657
5767 5765 5763 5761 5759 5757 5754 5752 5749 5746 5744 5741 5738 5735 5733 5730 5727 5724 5721 5717 5714 5710 5706 5702 5698 5694 5690 5686 5682 5678 5674 5670 5666 5662 5659 5655 5651 5647